Location: Newark
(46.1292°N, 1.0086°W)
Time: 15:22:03
(UTC+00:00)

Courier 1B - Visible Passes

Search period start: 13 November 2019 00:00
Search period end: 23 November 2019 00:00
Orbit: 963 x 1209 km, 28.3° (Epoch: 12 November)

Date Brightness Start Highest point End Pass type
(mag) Time Alt. Az. Time Alt. Az. Time Alt. Az.
19 Nov 9.9 06:13:56 10° SSW 06:16:56 13° SSE 06:19:53 10° SE visible
20 Nov 10.0 05:21:12 10° S 05:23:29 12° SSE 05:25:44 10° SE visible
21 Nov 9.8 06:18:54 10° SSW 06:22:49 16° S 06:26:37 10° SE visible
22 Nov 9.8 05:25:33 10° SSW 05:29:20 15° S 05:33:01 10° SE visible
